Time,TemperatureF,DewpointF,PressureIn,WindDirection,WindDirectionDegrees,WindSpeedMPH,WindSpeedGustMPH,Humidity,HourlyPrecipIn,Conditions,Clouds,dailyrainin,SoftwareType,DateUTC
2013-08-11 00:01:00,66.0,66.0,30.11,East,90,0.0,0.0,100,0.00,,,0.00,,2013-08-11 04:01:00,
2013-08-11 00:12:00,66.0,66.0,30.13,ESE,112,0.0,0.0,100,0.00,,,0.00,,2013-08-11 04:12:00,
2013-08-11 00:22:00,66.0,66.0,30.13,East,90,0.0,0.0,100,0.00,,,0.00,,2013-08-11 04:22:00,
2013-08-11 00:32:00,65.0,65.0,30.11,East,90,0.0,0.0,100,0.00,,,0.00,,2013-08-11 04:32:00,
2013-08-11 00:43:00,65.0,65.0,30.13,East,90,0.0,0.0,100,0.00,,,0.00,,2013-08-11 04:43:00,
2013-08-11 00:53:00,64.0,64.0,30.12,East,90,0.0,0.0,100,0.00,,,0.00,,2013-08-11 04:53:00,
2013-08-11 01:02:00,64.0,64.0,30.13,East,90,0.0,0.0,100,0.00,,,0.00,,2013-08-11 05:02:00,
2013-08-11 01:18:00,64.0,64.0,30.14,East,90,0.0,0.0,100,0.00,,,0.00,,2013-08-11 05:18:00,
2013-08-11 01:25:00,63.0,63.0,30.13,East,90,0.0,0.0,100,0.00,,,0.00,,2013-08-11 05:25:00,
2013-08-11 01:36:00,63.0,63.0,30.13,East,90,0.0,0.0,100,0.00,,,0.00,,2013-08-11 05:36:00,
2013-08-11 01:54:00,62.0,62.0,30.14,East,90,0.0,0.0,100,0.00,,,0.00,,2013-08-11 05:54:00,
2013-08-11 02:04:00,62.0,62.0,30.13,East,90,0.0,0.0,100,0.00,,,0.00,,2013-08-11 06:04:00,
2013-08-11 02:17:00,61.0,61.0,30.13,East,90,0.0,0.0,100,0.00,,,0.00,,2013-08-11 06:17:00,
2013-08-11 02:26:00,61.0,61.0,30.15,East,90,0.0,0.0,100,0.00,,,0.00,,2013-08-11 06:26:00,
2013-08-11 02:48:00,61.0,61.0,30.13,East,90,0.0,0.0,100,0.00,,,0.00,,2013-08-11 06:48:00,
2013-08-11 03:06:00,60.0,60.0,30.13,East,90,0.0,0.0,100,0.00,,,0.00,,2013-08-11 07:06:00,
2013-08-11 03:24:00,60.0,60.0,30.13,East,90,0.0,0.0,100,0.00,,,0.00,,2013-08-11 07:24:00,
2013-08-11 03:36:00,60.0,60.0,30.13,East,90,0.0,0.0,100,0.00,,,0.00,,2013-08-11 07:36:00,
2013-08-11 04:09:00,59.0,59.0,30.13,East,90,0.0,0.0,100,0.00,,,0.00,,2013-08-11 08:09:00,
2013-08-11 04:18:00,59.0,59.0,30.13,East,90,0.0,0.0,100,0.00,,,0.00,,2013-08-11 08:18:00,
2013-08-11 04:47:00,59.0,59.0,30.13,East,90,0.0,0.0,100,0.00,,,0.00,,2013-08-11 08:47:00,
2013-08-11 05:07:00,59.0,59.0,30.13,East,90,0.0,0.0,100,0.00,,,0.00,,2013-08-11 09:07:00,
2013-08-11 05:15:00,59.0,59.0,30.14,East,90,0.0,0.0,100,0.00,,,0.00,,2013-08-11 09:15:00,
2013-08-11 05:43:00,59.0,59.0,30.15,East,90,0.0,0.0,100,0.00,,,0.00,,2013-08-11 09:43:00,
2013-08-11 06:05:00,58.0,58.0,30.15,East,90,0.0,0.0,100,0.00,,,0.00,,2013-08-11 10:05:00,
2013-08-11 06:14:00,58.0,58.0,30.14,East,90,0.0,0.0,100,0.00,,,0.00,,2013-08-11 10:14:00,
2013-08-11 06:35:00,58.0,58.0,30.14,East,90,0.0,0.0,100,0.00,,,0.00,,2013-08-11 10:35:00,
2013-08-11 06:45:00,58.0,58.0,30.15,East,90,0.0,0.0,100,0.00,,,0.00,,2013-08-11 10:45:00,
2013-08-11 06:55:00,57.0,57.0,30.15,East,90,0.0,0.0,100,0.00,,,0.00,,2013-08-11 10:55:00,
2013-08-11 07:06:00,57.0,57.0,30.16,East,90,0.0,0.0,100,0.00,,,0.00,,2013-08-11 11:06:00,
2013-08-11 07:24:00,57.0,57.0,30.15,East,90,0.0,0.0,100,0.00,,,0.00,,2013-08-11 11:24:00,
2013-08-11 07:36:00,58.0,58.0,30.15,East,90,0.0,0.0,100,0.00,,,0.00,,2013-08-11 11:36:00,
2013-08-11 07:47:00,58.0,58.0,30.15,East,90,0.0,0.0,100,0.00,,,0.00,,2013-08-11 11:47:00,
2013-08-11 07:56:00,58.0,58.0,30.15,East,90,0.0,0.0,100,0.00,,,0.00,,2013-08-11 11:56:00,
2013-08-11 08:06:00,59.0,59.0,30.14,East,90,0.0,0.0,100,0.00,,,0.00,,2013-08-11 12:06:00,
2013-08-11 08:15:00,60.0,60.0,30.15,East,90,0.0,0.0,100,0.00,,,0.00,,2013-08-11 12:15:00,
2013-08-11 08:29:00,61.0,61.0,30.13,East,90,0.0,0.0,100,0.00,,,0.00,,2013-08-11 12:29:00,
2013-08-11 08:36:00,61.0,61.0,30.11,NE,45,0.0,4.0,100,0.00,,,0.00,,2013-08-11 12:36:00,
2013-08-11 08:45:00,62.0,62.0,30.10,NNE,22,0.0,0.0,100,0.00,,,0.00,,2013-08-11 12:45:00,
2013-08-11 08:54:00,64.0,64.0,30.09,NE,45,0.0,0.0,100,0.00,,,0.00,,2013-08-11 12:54:00,
2013-08-11 09:06:00,65.0,65.0,30.09,ESE,112,1.0,0.0,100,0.00,,,0.00,,2013-08-11 13:06:00,
2013-08-11 09:16:00,67.0,67.0,30.08,East,90,0.0,0.0,100,0.00,,,0.00,,2013-08-11 13:16:00,
2013-08-11 09:25:00,67.0,67.0,30.08,East,90,0.0,0.0,100,0.00,,,0.00,,2013-08-11 13:25:00,
2013-08-11 09:39:00,68.0,68.0,30.08,NE,45,0.0,0.0,100,0.00,,,0.00,,2013-08-11 13:39:00,
2013-08-11 10:04:00,72.0,69.0,30.06,ESE,112,0.0,0.0,89,0.00,,,0.00,,2013-08-11 14:04:00,
2013-08-11 10:17:00,73.0,68.0,30.05,East,90,1.0,0.0,83,0.00,,,0.00,,2013-08-11 14:17:00,
2013-08-11 10:24:00,74.0,66.0,30.05,NE,45,0.0,3.0,75,0.00,,,0.00,,2013-08-11 14:24:00,
2013-08-11 10:47:00,76.0,65.0,30.05,ESE,112,0.0,0.0,70,0.00,,,0.00,,2013-08-11 14:47:00,
2013-08-11 10:56:00,76.0,65.0,30.03,East,90,0.0,0.0,68,0.00,,,0.00,,2013-08-11 14:56:00,
2013-08-11 11:07:00,77.0,65.0,30.03,NNE,22,0.0,0.0,67,0.00,,,0.00,,2013-08-11 15:07:00,
2013-08-11 11:14:00,78.0,66.0,30.03,North,360,0.0,0.0,66,0.00,,,0.00,,2013-08-11 15:14:00,
2013-08-11 11:24:00,78.0,66.0,30.03,WNW,292,0.0,0.0,66,0.00,,,0.00,,2013-08-11 15:24:00,
2013-08-11 11:48:00,80.0,66.0,30.03,NNW,337,0.0,0.0,63,0.00,,,0.00,,2013-08-11 15:48:00,
2013-08-11 12:09:00,82.0,67.0,30.01,North,360,0.0,0.0,60,0.00,,,0.00,,2013-08-11 16:09:00,
2013-08-11 12:14:00,81.0,65.0,30.01,NNE,22,0.0,0.0,59,0.00,,,0.00,,2013-08-11 16:14:00,
2013-08-11 12:28:00,82.0,64.0,30.02,East,90,0.0,0.0,55,0.00,,,0.00,,2013-08-11 16:28:00,
2013-08-11 12:39:00,82.0,64.0,30.02,NW,315,0.0,0.0,55,0.00,,,0.00,,2013-08-11 16:39:00,
2013-08-11 12:55:00,82.0,64.0,30.01,NE,45,0.0,0.0,54,0.00,,,0.00,,2013-08-11 16:55:00,
2013-08-11 13:08:00,82.0,64.0,30.02,East,90,0.0,0.0,54,0.00,,,0.00,,2013-08-11 17:08:00,
2013-08-11 13:13:00,82.0,62.0,30.02,West,270,0.0,0.0,51,0.00,,,0.00,,2013-08-11 17:13:00,
2013-08-11 13:25:00,83.0,63.0,30.01,NE,45,0.0,0.0,51,0.00,,,0.00,,2013-08-11 17:25:00,
2013-08-11 13:36:00,83.0,62.0,30.02,WSW,247,0.0,0.0,49,0.00,,,0.00,,2013-08-11 17:36:00,
2013-08-11 13:45:00,81.0,62.0,30.01,WSW,247,0.0,0.0,53,0.00,,,0.00,,2013-08-11 17:45:00,
2013-08-11 14:06:00,80.0,63.0,30.03,West,270,0.0,0.0,57,0.00,,,0.00,,2013-08-11 18:06:00,
2013-08-11 14:17:00,81.0,64.0,30.03,SW,225,0.0,0.0,56,0.00,,,0.00,,2013-08-11 18:17:00,
2013-08-11 14:27:00,81.0,64.0,30.03,North,360,0.0,0.0,57,0.00,,,0.00,,2013-08-11 18:27:00,
2013-08-11 14:47:00,83.0,64.0,30.02,SW,225,0.0,0.0,53,0.00,,,0.00,,2013-08-11 18:47:00,
2013-08-11 14:54:00,81.0,62.0,30.01,WSW,247,0.0,0.0,53,0.00,,,0.00,,2013-08-11 18:54:00,
2013-08-11 15:16:00,80.0,63.0,30.02,West,270,1.0,0.0,57,0.00,,,0.00,,2013-08-11 19:16:00,
2013-08-11 15:25:00,80.0,63.0,30.02,West,270,0.0,0.0,57,0.00,,,0.00,,2013-08-11 19:25:00,
2013-08-11 15:33:00,79.0,64.0,30.03,WNW,292,0.0,0.0,61,0.00,,,0.00,,2013-08-11 19:33:00,
2013-08-11 15:49:00,81.0,65.0,30.03,NW,315,0.0,0.0,59,0.00,,,0.00,,2013-08-11 19:49:00,
2013-08-11 15:56:00,82.0,65.0,30.01,North,360,0.0,0.0,56,0.00,,,0.00,,2013-08-11 19:56:00,
2013-08-11 16:18:00,79.0,64.0,30.02,NNW,337,0.0,0.0,60,0.00,,,0.00,,2013-08-11 20:18:00,
2013-08-11 16:28:00,81.0,64.0,30.01,West,270,0.0,0.0,56,0.00,,,0.00,,2013-08-11 20:28:00,
2013-08-11 16:38:00,81.0,64.0,30.00,NE,45,0.0,0.0,56,0.00,,,0.00,,2013-08-11 20:38:00,
2013-08-11 16:47:00,80.0,63.0,30.00,WNW,292,0.0,0.0,56,0.00,,,0.00,,2013-08-11 20:47:00,
2013-08-11 16:55:00,80.0,63.0,30.01,West,270,0.0,0.0,56,0.00,,,0.00,,2013-08-11 20:55:00,
2013-08-11 17:07:00,81.0,62.0,29.98,NW,315,0.0,0.0,52,0.00,,,0.00,,2013-08-11 21:07:00,
2013-08-11 17:13:00,84.0,63.0,29.98,WNW,292,0.0,0.0,50,0.00,,,0.00,,2013-08-11 21:13:00,
2013-08-11 17:27:00,83.0,63.0,29.97,West,270,0.0,0.0,51,0.00,,,0.00,,2013-08-11 21:27:00,
2013-08-11 17:46:00,82.0,62.0,29.98,West,270,0.0,0.0,51,0.00,,,0.00,,2013-08-11 21:46:00,
2013-08-11 17:54:00,82.0,61.0,29.98,West,270,0.0,0.0,49,0.00,,,0.00,,2013-08-11 21:54:00,
2013-08-11 18:04:00,81.0,61.0,29.98,NW,315,1.0,5.0,51,0.00,,,0.00,,2013-08-11 22:04:00,
2013-08-11 18:15:00,81.0,62.0,29.98,NW,315,1.0,7.0,52,0.00,,,0.00,,2013-08-11 22:15:00,
2013-08-11 18:35:00,81.0,62.0,29.98,West,270,0.0,0.0,52,0.00,,,0.00,,2013-08-11 22:35:00,
2013-08-11 18:46:00,81.0,62.0,29.98,West,270,0.0,0.0,53,0.00,,,0.00,,2013-08-11 22:46:00,
2013-08-11 18:55:00,80.0,61.0,29.98,West,270,0.0,4.0,53,0.00,,,0.00,,2013-08-11 22:55:00,
2013-08-11 19:16:00,80.0,62.0,29.98,WNW,292,0.0,0.0,54,0.00,,,0.00,,2013-08-11 23:16:00,
2013-08-11 19:28:00,79.0,60.0,29.98,NW,315,0.0,0.0,53,0.00,,,0.00,,2013-08-11 23:28:00,
2013-08-11 19:35:00,79.0,61.0,29.98,NNW,337,0.0,2.0,55,0.00,,,0.00,,2013-08-11 23:35:00,
2013-08-11 19:47:00,78.0,62.0,30.01,NW,315,0.0,0.0,57,0.00,,,0.00,,2013-08-11 23:47:00,
2013-08-11 19:56:00,76.0,62.0,30.01,WNW,292,0.0,0.0,61,0.00,,,0.00,,2013-08-11 23:56:00,
2013-08-11 20:16:00,75.0,62.0,30.03,WNW,292,0.0,0.0,64,0.00,,,0.00,,2013-08-12 00:16:00,
2013-08-11 20:24:00,74.0,62.0,30.03,WNW,292,0.0,0.0,66,0.00,,,0.00,,2013-08-12 00:24:00,
2013-08-11 20:37:00,73.0,62.0,30.05,WNW,292,0.0,0.0,68,0.00,,,0.00,,2013-08-12 00:37:00,
2013-08-11 20:48:00,73.0,62.0,30.05,WNW,292,0.0,0.0,68,0.00,,,0.00,,2013-08-12 00:48:00,
2013-08-11 20:54:00,73.0,63.0,30.03,WNW,292,0.0,0.0,70,0.00,,,0.00,,2013-08-12 00:54:00,
2013-08-11 21:07:00,72.0,62.0,30.03,WNW,292,0.0,0.0,71,0.00,,,0.00,,2013-08-12 01:07:00,
2013-08-11 21:14:00,72.0,63.0,30.06,WNW,292,0.0,0.0,73,0.00,,,0.00,,2013-08-12 01:14:00,
2013-08-11 21:25:00,71.0,63.0,30.05,WNW,292,0.0,0.0,76,0.00,,,0.00,,2013-08-12 01:25:00,
2013-08-11 21:46:00,70.0,64.0,30.07,WNW,292,0.0,0.0,81,0.00,,,0.00,,2013-08-12 01:46:00,
2013-08-11 21:55:00,70.0,65.0,30.06,WNW,292,0.0,0.0,84,0.00,,,0.00,,2013-08-12 01:55:00,
2013-08-11 22:08:00,69.0,64.0,30.06,WNW,292,0.0,0.0,85,0.00,,,0.00,,2013-08-12 02:08:00,
2013-08-11 22:14:00,68.0,64.0,30.07,WNW,292,0.0,0.0,87,0.00,,,0.00,,2013-08-12 02:14:00,
2013-08-11 22:24:00,67.0,63.0,30.07,WNW,292,0.0,0.0,88,0.00,,,0.00,,2013-08-12 02:24:00,
2013-08-11 23:07:00,67.0,65.0,30.09,WNW,292,0.0,0.0,94,0.00,,,0.00,,2013-08-12 03:07:00,
2013-08-11 23:15:00,68.0,66.0,30.08,WNW,292,0.0,0.0,93,0.00,,,0.00,,2013-08-12 03:15:00,
2013-08-11 23:38:00,67.0,66.0,30.08,WNW,292,0.0,0.0,96,0.00,,,0.00,,2013-08-12 03:38:00,
2013-08-11 23:45:00,67.0,66.0,30.09,WNW,292,0.0,0.0,96,0.00,,,0.00,,2013-08-12 03:45:00,